Date String (YYYY-MM-DD hh:mm:ss) UTC,Instrument flags,Ambient pressure (hPa),Sample flow (lpm),Bypass flow (lpm),Sample temperature (°C),Ambient temperature (°C),ASC tube jacket temperature (°C),LED temperature (°C),Box temperature (°C),Sample RH (%),Span deviation,Mass concentration (μg/m³),Mass concentration (μg/m³),Mass concentration (μg/m³)
DateTimeUTC,F1_M11,P_M11,Q1_M11,Q2_M11,T1_M11,T2_M11,T3_M11,T4_M11,T5_M11,U1_M11,ZSPAN_M11,X0_M11,X2_M11,X1_M11
2022-09-09 08:00:00,,0826.4,5.00,0.00,30.1,28.6,00.0,38.9,31.9,24.5,0003.2,0046.84,0019.19,0014.38
2022-09-09 08:01:00,,0826.3,5.00,0.00,30.1,28.7,00.0,38.9,31.9,24.0,0003.2,0047.52,0019.10,0014.30
2022-09-09 08:02:00,,0826.4,5.00,0.00,30.1,28.7,00.0,38.9,31.9,23.3,0003.0,0047.10,0018.97,0014.23
2022-09-09 08:03:00,,0826.4,5.00,0.00,30.1,28.7,00.0,38.9,31.9,23.3,0002.8,0046.23,0018.88,0014.20
2022-09-09 08:04:00,,0826.2,5.00,0.00,30.1,28.8,00.0,38.9,32.0,23.5,0002.4,0044.99,0018.83,0014.17
2022-09-09 08:05:00,,0826.2,5.00,0.00,30.1,28.8,00.0,38.9,32.0,23.1,0002.2,0045.75,0018.82,0014.13
2022-09-09 08:06:00,,0826.1,5.00,0.00,30.1,28.8,00.0,38.9,32.0,23.1,0002.4,0047.07,0018.75,0014.09
2022-09-09 08:07:00,,0826.1,5.00,0.00,30.1,28.9,00.0,39.0,32.0,23.0,0002.4,0047.09,0018.66,0014.06
2022-09-09 08:08:00,,0826.2,4.99,0.00,30.2,28.9,00.0,39.0,32.0,22.8,0002.3,0047.72,0018.66,0014.01
2022-09-09 08:09:00,,0826.1,5.00,0.00,30.2,28.9,00.0,39.0,32.0,22.8,0002.6,0047.56,0018.54,0013.99
2022-09-09 08:10:00,,0826.2,5.01,0.00,30.2,28.9,00.0,39.0,32.0,22.9,0002.9,0048.68,0018.52,0013.99
2022-09-09 08:11:00,,0826.2,4.99,0.00,30.2,28.9,00.0,39.0,32.0,23.0,0002.6,0047.88,0018.49,0013.98
2022-09-09 08:12:00,,0826.3,5.00,0.00,30.2,29.0,00.0,39.0,32.0,23.0,0002.7,0046.84,0018.36,0013.96
2022-09-09 08:13:00,,0826.4,5.00,0.00,30.2,29.0,00.0,39.0,32.0,22.9,0002.8,0046.03,0018.35,0013.94
2022-09-09 08:14:00,,0826.5,5.01,0.00,30.2,29.0,00.0,39.0,32.1,22.7,0003.2,0045.87,0018.36,0013.93
2022-09-09 08:15:00,,0826.5,4.99,0.00,30.2,29.1,00.0,39.0,32.1,22.7,0003.3,0045.71,0018.40,0013.92
2022-09-09 08:16:00,,0826.5,5.00,0.00,30.3,29.1,00.0,39.0,32.1,22.8,0003.3,0046.16,0018.38,0013.91
2022-09-09 08:17:00,,0826.5,5.01,0.00,30.3,29.1,00.0,39.1,32.1,22.8,0003.3,0044.95,0018.42,0013.91
2022-09-09 08:18:00,,0826.5,5.00,0.00,30.3,29.1,00.0,39.1,32.1,22.6,0003.4,0044.86,0018.45,0013.91
2022-09-09 08:19:00,,0826.5,4.98,0.00,30.3,29.1,00.0,39.1,32.1,22.7,0003.7,0044.56,0018.49,0013.94
2022-09-09 08:20:00,,0826.4,5.01,0.00,30.3,29.1,00.0,39.1,32.1,22.7,0003.7,0044.30,0018.47,0013.93
2022-09-09 08:21:00,,0826.5,5.01,0.00,30.3,29.1,00.0,39.1,32.1,22.5,0003.6,0044.27,0018.49,0013.89
2022-09-09 08:22:00,,0826.5,5.00,0.00,30.3,29.1,00.0,39.1,32.2,22.4,0003.4,0044.29,0018.48,0013.86
2022-09-09 08:23:00,,0826.5,4.99,0.00,30.4,29.1,00.0,39.1,32.2,22.4,0003.2,0044.56,0018.53,0013.84
2022-09-09 08:24:00,,0826.4,5.00,0.00,30.4,29.2,00.0,39.1,32.2,22.3,0002.6,0043.82,0018.47,0013.85
2022-09-09 08:25:00,,0826.4,5.01,0.00,30.4,29.2,00.0,39.1,32.2,22.4,0002.7,0043.50,0018.52,0013.86
2022-09-09 08:26:00,,0826.3,4.98,0.00,30.4,29.2,00.0,39.2,32.2,22.2,0002.5,0043.36,0018.45,0013.86
2022-09-09 08:27:00,,0826.2,5.01,0.00,30.4,29.3,00.0,39.2,32.2,22.2,0002.7,0044.30,0018.50,0013.86
2022-09-09 08:28:00,,0826.2,5.01,0.00,30.4,29.3,00.0,39.2,32.2,22.0,0003.1,0046.47,0018.57,0013.87
2022-09-09 08:29:00,,0826.1,5.01,0.00,30.4,29.3,00.0,39.2,32.3,22.0,0003.1,0048.00,0018.67,0013.87
2022-09-09 08:30:00,,0826.1,4.99,0.00,30.5,29.3,00.0,39.2,32.3,21.9,0002.7,0048.16,0018.71,0013.85
2022-09-09 08:31:00,,0826.0,5.01,0.00,30.5,29.4,00.0,39.2,32.3,22.0,0002.4,0048.48,0018.80,0013.85
2022-09-09 08:32:00,,0826.0,4.99,0.00,30.5,29.4,00.0,39.2,32.3,21.8,0002.4,0047.61,0018.84,0013.87
2022-09-09 08:33:00,,0826.0,5.01,0.00,30.5,29.4,00.0,39.3,32.3,21.8,0003.0,0047.13,0018.76,0013.85
2022-09-09 08:34:00,,0826.1,4.99,0.00,30.5,29.4,00.0,39.3,32.3,21.6,0003.1,0048.35,0018.83,0013.85
2022-09-09 08:35:00,,0826.2,5.01,0.00,30.5,29.4,00.0,39.3,32.4,21.8,0003.4,0049.61,0018.90,0013.82
2022-09-09 08:36:00,,0826.3,5.01,0.00,30.6,29.5,00.0,39.3,32.4,21.7,0003.2,0051.64,0018.88,0013.79
2022-09-09 08:37:00,,0826.4,4.98,0.00,30.6,29.4,00.0,39.3,32.4,21.7,0003.0,0052.65,0018.79,0013.75
2022-09-09 08:38:00,,0826.4,5.01,0.00,30.6,28.1,00.0,39.3,32.2,22.0,0002.9,0052.14,0018.81,0013.76
2022-09-09 08:39:00,,0826.4,4.99,0.00,30.5,27.0,00.0,39.3,32.1,22.0,0002.8,0050.96,0018.68,0013.74
2022-09-09 08:40:00,,0826.4,5.00,0.00,30.4,26.9,00.0,39.2,32.0,22.0,0002.3,0051.93,0018.59,0013.72
2022-09-09 08:41:00,,0826.5,5.00,0.00,30.3,27.1,00.0,39.1,31.8,22.2,0002.4,0053.22,0018.55,0013.72
2022-09-09 08:42:00,,0826.5,5.01,0.00,30.2,27.5,00.0,39.1,31.8,22.3,0002.8,0054.03,0018.48,0013.69
2022-09-09 08:43:00,,0826.5,5.00,0.00,30.2,27.8,00.0,39.1,31.8,22.4,0002.8,0055.02,0018.49,0013.64
2022-09-09 08:44:00,,0826.5,5.00,0.00,30.2,28.1,00.0,39.1,31.9,22.4,0002.5,0054.82,0018.56,0013.62
2022-09-09 08:45:00,,0826.5,5.00,0.00,30.2,28.3,00.0,39.0,31.9,22.6,0002.6,0053.66,0018.55,0013.60
2022-09-09 08:46:00,,0826.5,5.01,0.00,30.1,28.5,00.0,39.0,31.9,22.8,0002.7,0052.69,0018.56,0013.59
2022-09-09 08:47:00,,0826.5,4.99,0.00,30.1,28.6,00.0,39.0,31.9,22.8,0002.9,0051.77,0018.58,0013.60
2022-09-09 08:48:00,,0826.6,5.00,0.00,30.1,28.7,00.0,39.0,31.9,22.8,0002.9,0052.51,0018.62,0013.63
2022-09-09 08:49:00,,0826.5,5.01,0.00,30.1,28.8,00.0,39.0,31.9,22.8,0002.9,0052.44,0018.68,0013.64
2022-09-09 08:50:00,,0826.5,5.00,0.00,30.2,28.8,00.0,39.0,32.0,22.7,0002.6,0051.22,0018.72,0013.66
2022-09-09 08:51:00,,0826.4,5.00,0.00,30.2,28.9,00.0,39.0,32.0,22.7,0002.9,0049.11,0018.72,0013.67
2022-09-09 08:52:00,,0826.5,4.98,0.00,30.2,28.9,00.0,39.0,32.0,22.9,0003.0,0048.97,0018.70,0013.68
2022-09-09 08:53:00,,0826.5,5.00,0.00,30.2,29.0,00.0,39.0,32.0,22.9,0002.9,0049.15,0018.74,0013.71
2022-09-09 08:54:00,,0826.5,5.01,0.00,30.2,29.0,00.0,39.0,32.0,22.9,0002.8,0048.89,0018.74,0013.79
2022-09-09 08:55:00,,0826.4,4.99,0.00,30.2,29.1,00.0,39.0,32.1,22.8,0002.6,0050.15,0018.88,0013.87
2022-09-09 08:56:00,,0826.4,5.01,0.00,30.2,29.1,00.0,39.0,32.1,22.9,0002.6,0051.55,0018.87,0013.93
2022-09-09 08:57:00,,0826.2,5.01,0.00,30.3,29.1,00.0,39.1,32.1,22.9,0002.7,0051.46,0018.92,0013.99
2022-09-09 08:58:00,,0826.2,4.98,0.00,30.3,29.1,00.0,39.1,32.1,23.0,0002.7,0052.84,0018.97,0014.02
2022-09-09 08:59:00,,0826.2,5.01,0.00,30.3,29.0,00.0,39.1,32.1,23.0,0002.7,0053.43,0019.08,0014.06
